Weather History for Driggs, ID

Change the Weather History Date:

Saturday, November 24, 2012

  Actual Average (KRXE) Record (KRXE)
Temperature  
Mean Temperature 36 °F 26 °F  
Max Temperature 41 °F 35 °F 53 °F (2011)
Min Temperature 32 °F 18 °F 1 °F (2010)
Degree Days  
Heating Degree Days 28 39  
Month to date heating degree days 785  
Since 1 July heating degree days 1772  
Cooling Degree Days 0 0  
Month to date cooling degree days 0  
Year to date cooling degree days 208  
Moisture  
Dew Point 27 °F    
Average Humidity 67    
Maximum Humidity 93    
Minimum Humidity 38    
Precipitation  
Precipitation 0.16 in 0.03 in 0.33 in (1983)
Month to date precipitation 0.88  
Year to date precipitation 11.87  
Sea Level Pressure  
Sea Level Pressure 30.09 in    
Wind  
Wind Speed 10 mph (South)    
Max Wind Speed 21 mph    
Max Gust Speed -    
Visibility 10 miles    
Events Rain , Snow    
T = Trace of Precipitation, MM = Missing Value Source: NWS Daily Summary

Daily Weather History Graph

Daily Weather History Graph

Search for Another Location

Airport:

Trip Planner

Search our weather history database for the weather conditions in past years. The results will help you decide how hot, cold, wet, or windy it might be!

Date:

Astronomy

Nov. 24, 2012 Rise Set
Actual Time 7:30 AM MST 4:51 PM MST
Civil Twilight 6:58 AM MST 5:23 PM MST
Nautical Twilight 6:23 AM MST 5:58 PM MST
Astronomical Twilight 5:49 AM MST 6:32 PM MST
Moon 2:42 PM MST (11/24) 3:45 AM MST (11/24)
Length of Visible Light 10h 24m
Length of Day
9h 20m
Waxing Gibbous, 87% of the Moon is Illuminated
Nov 24
Waxing Gibbous
Nov 28
Full
Dec 6
Last Quarter
Dec 13
New
Dec 19
First Quarter

Hourly Weather History & Observations

Time (MST) Temp. Windchill Dew Point Humidity Pressure Visibility Wind Dir Wind Speed Gust Speed Precip Events Conditions
1:56 AM 36.0 °F 32.1 °F 20.1 °F 53% 30.17 in 10.0 mi South 4.6 mph - N/A   Clear
2:56 AM 32.9 °F 27.5 °F 24.1 °F 70% 30.19 in 10.0 mi SE 5.8 mph - N/A   Clear
3:56 AM 34.9 °F 27.1 °F 22.1 °F 60% 30.19 in 10.0 mi South 10.4 mph - N/A   Clear
4:56 AM 38.8 °F 32.1 °F 17.1 °F 41% 30.16 in 10.0 mi South 10.4 mph - N/A   Clear
5:56 AM 41.0 °F 33.9 °F 17.1 °F 38% 30.16 in 10.0 mi South 12.7 mph - N/A   Overcast
6:56 AM 41.0 °F 34.7 °F 19.0 °F 41% 30.16 in 10.0 mi South 10.4 mph - N/A   Overcast
7:56 AM 41.0 °F 34.3 °F 19.0 °F 41% 30.16 in 10.0 mi South 11.5 mph - N/A   Overcast
8:56 AM 41.0 °F 34.3 °F 21.0 °F 45% 30.16 in 10.0 mi SSE 11.5 mph - N/A   Overcast
9:56 AM 41.9 °F 34.0 °F 20.1 °F 42% 30.15 in 10.0 mi South 16.1 mph - N/A   Overcast
10:56 AM 41.9 °F 34.3 °F 20.1 °F 42% 30.13 in 10.0 mi South 15.0 mph - N/A   Overcast
11:56 AM 41.9 °F 34.6 °F 21.0 °F 43% 30.11 in 10.0 mi South 13.8 mph - N/A   Overcast
12:56 PM 41.9 °F 32.8 °F 22.1 °F 45% 30.09 in 10.0 mi SSW 20.7 mph - 0.00 in Rain Light Rain
1:56 PM 41.9 °F 36.3 °F 25.2 °F 52% 30.07 in 10.0 mi SSW 9.2 mph - 0.00 in   Overcast
2:56 PM 41.9 °F 35.9 °F 26.1 °F 53% 30.06 in 10.0 mi SSW 10.4 mph - 0.00 in Rain Light Rain
3:56 PM 41.0 °F 34.3 °F 27.1 °F 58% 30.06 in 10.0 mi SW 11.5 mph - 0.00 in Rain Light Rain
4:56 PM 38.8 °F 30.0 °F 30.0 °F 71% 30.04 in 10.0 mi South 16.1 mph - 0.01 in   Overcast
5:08 PM 37.4 °F 28.2 °F 30.2 °F 75% 30.11 in 5.0 mi South 16.1 mph - 0.00 in Snow Light Snow
5:15 PM 37.4 °F 29.8 °F 30.2 °F 75% 30.11 in 10.0 mi South 11.5 mph - 0.01 in Snow Light Snow
5:56 PM 36.0 °F 27.5 °F 32.9 °F 89% 30.03 in 10.0 mi South 12.7 mph - 0.02 in Snow Light Snow
6:27 PM 35.6 °F 27.5 °F 33.8 °F 93% 30.10 in 10.0 mi SSE 11.5 mph - 0.01 in   Overcast
6:56 PM 34.9 °F 27.1 °F 32.9 °F 92% 30.03 in 10.0 mi SSE 10.4 mph - 0.02 in   Overcast
7:21 PM 35.6 °F 27.5 °F 33.8 °F 93% 30.09 in 5.0 mi South 11.5 mph - 0.02 in   Overcast
7:56 PM 34.9 °F 27.1 °F 32.9 °F 92% 30.02 in 10.0 mi South 10.4 mph - 0.05 in   Overcast
8:56 PM 34.9 °F 27.7 °F 32.9 °F 92% 30.01 in 10.0 mi South 9.2 mph - 0.02 in   Overcast
9:38 PM 35.6 °F 28.0 °F 33.8 °F 93% 30.06 in 10.0 mi SSE 10.4 mph - 0.00 in   Overcast
9:56 PM 34.9 °F 27.1 °F 32.9 °F 92% 29.98 in 10.0 mi SSE 10.4 mph - 0.00 in   Overcast
10:56 PM 34.9 °F 27.7 °F 32.9 °F 92% 29.97 in 10.0 mi South 9.2 mph - 0.03 in   Mostly Cloudy
11:56 PM 34.9 °F 27.1 °F 32.9 °F 92% 29.95 in 10.0 mi SSE 10.4 mph - 0.01 in   Mostly Cloudy